COSMOS 1275 DEB, 12660

Orbit data source: Space-Track

COSMOS 1275 DEB, 12660 is space debris in LEO originally from a launch on Thu, 04 Jun 1981 UTC launched from the Plesetsk Missile And Space Complex (PKMTR). Debris objects in space refer to the collection of defunct objects orbiting the Earth. Examples of debris include non-operational satellites, rocket bodies, and fragments generated from explosions, collisions, or faulty payload assembly.

Loading next visibility...
Identifier
12660, 1981-053Q
Orbit
LEO
Country
Flag of CISCIS
Related business
Manufacturer
Unknown
Mission
Spacecraft
Bus & Motor
Unknown
Mass
Unknown
Launch date (UTC)
1981-06-04 (44 years ago)
Launch vehicle
Unknown
Launch site
Plesetsk Missile And Space Complex (PKMTR)
Object type
Payload
Rocket body
Debris
Shape & HBR
Unknown shape, 0.1 m
Radar Cross Section
Small (<0.1 m²)

Expand to show TLE details & history
Last TLE update: 7 hours ago

TLE from 7 hours ago
0 COSMOS 1275 DEB
1 12660U 81053Q   25291.15222000  .00001109  00000-0  12556-2 0  9995
2 12660  82.8488 279.7964 0137617  99.1795  18.4370 13.65578857189000
Epoch: 2025-10-18T03:39Z
TLE epoch observation values (Epoch: 2025-10-18T03:39:11.807Z)
Latitude
61.1466°
Longitude
5.01749°
Altitude
929.525 km
Speed
7.441 km/s
True Right ascension
05h 46m 48s
True Declination
61° 00' 16"
Sunlit
Object was in daylight at epoch
Visualization orbit readout
Latitude
Unknown
Longitude
Unknown
Altitude
Unknown
Speed
Unknown
Apparent Right ascension
Unknown
Apparent Declination
Unknown
Sunlit
N/A
Visualization observer readout
Local Sidereal Time
05:49:36
Azimuth
Unknown
Elevation
Unknown
Doppler factor
Unknown
Orbital elements
Apogee altitude
1,114.361 km
Perigee altitude
910.941 km
Semi-major axis
7,390.788 km
Eccentricity
0.01376
Inclination
82.8488°
RAAN
279.7964°
Arg. of periapsis
99.1795°
True anomaly
18.944°
Mean anomaly
18.437°
Eccentric anomaly
18.68966°
Mean motion
3.41592 °/min
Orbital period
105.39 mins
BSTAR
0.0012556
Loading maneuver chart data...
Computing Atmospheric mass density...

Documentation

Showing up to 5 results
|